Location: Hann Hill
(41.2106°N, 80.4470°W)
Time: 13:15:44
(UTC+00:00)

Daily predictions for brighter satellites

Satellite Brightness Start Highest point End
(mag) Time Altitude Azimuth Time Altitude Azimuth Time Altitude Azimuth
Cosmos 1805 Rocket 4.1 22:20:53 10° N 22:25:04 39° ENE 22:29:13 10° SSE
Radarsat Rocket 4.1 22:20:00 10° SSE 22:25:54 72° ENE 22:32:25 10° NNW
Cosmos 2219 Rocket 3.6 22:21:12 10° SW 22:26:25 37° WNW 22:31:39 10° N
Cosmos 405 4.2 22:23:06 10° SSW 22:26:28 43° WNW 22:29:49 10° N
YAOGAN 6 2.6 22:23:09 10° SSE 22:26:47 66° ENE 22:30:24 10° N
Cosmos 389 Rocket 3.4 22:24:56 10° SSE 22:27:55 28° E 22:30:54 10° NNE
USA 281 4.3 22:28:00 10° E 22:32:48 22° NE 22:37:37 10° N
CZ-4B R/B 3.1 22:29:26 10° SSE 22:34:44 64° ENE 22:39:59 10° N
H-2A R/B 3.9 22:32:08 10° S 22:35:49 49° W 22:39:34 10° NNW
Cosmos 1939 Rocket 4.1 22:33:39 10° ESE 22:36:23 19° ENE 22:39:09 10° NNE
Landsat 5 4.0 22:32:08 10° N 22:36:30 70° WNW 22:40:58 10° SSW
ISS -2.6 22:33:23 10° W 22:36:31 36° NNW 22:39:39 10° NE
Cosmos 2237 Rocket 2.2 22:31:58 10° SSW 22:37:35 90° WNW 22:43:16 10° NNE
OE (NEXTSAT) 4.4 22:35:06 10° WSW 22:38:32 74° SSE 22:41:40 12° ENE
NOAA 11 4.5 22:35:05 10° SE 22:40:10 44° ENE 22:45:19 10° N
CORIOLIS 4.1 22:40:46 10° SSE 22:46:06 67° ENE 22:51:30 10° N
Nadezhda 1 Rocket 4.3 22:42:18 10° SSW 22:48:36 76° W 22:55:02 10° N
CREW DRAGON DEMO-1 DEB 4.4 22:46:31 10° NNW 22:48:50 20° NNE 22:50:09 16° NE
FengYun 1-2 T 4.3 22:44:50 10° SSE 22:50:16 58° ENE 22:55:41 10° N
Cosmos 405 Rocket 3.7 22:46:42 10° NNW 22:50:32 53° W 22:54:25 10° S
H-2A R/B 2.5 22:46:25 10° N 22:50:33 63° WNW 22:54:45 10° SSW
CZ-4B R/B 1.6 22:47:43 10° NNE 22:50:39 41° E 22:53:37 10° S
Cosmos 2369 Rocket 3.8 22:49:28 10° NNE 22:52:18 14° NE 22:53:22 13° ENE
Cosmos 1356 3.7 22:49:26 10° N 22:52:43 42° ENE 22:55:59 10° SSE
Abrixas rocket 2.7 22:52:19 10° WNW 22:54:59 48° SW 22:57:40 10° SE
SKYMED 2 4.3 22:51:53 10° NNE 22:55:49 32° E 22:59:43 10° SSE
Cosmos 1980 4.2 22:50:31 10° SW 22:56:08 60° WNW 23:01:46 10° NNE
Cosmos 1633 Rocket 3.6 22:57:01 10° N 23:01:04 36° ENE 23:05:05 10° SE
X-37B 2.9 23:02:31 10° SSE 23:03:46 12° SE 23:04:30 11° SE
Cosmos 1867 3.5 22:59:06 10° SSW 23:04:31 81° ESE 23:09:40 12° NE
Cosmos 1606 2.9 23:03:58 10° S 23:07:50 78° W 23:11:46 10° N
Cosmos 962 Rocket 4.4 23:01:58 10° N 23:08:17 82° E 23:14:29 10° S
Cosmos 1933 3.3 23:06:34 10° S 23:10:31 59° E 23:14:32 10° NNE
SAR-Lupe-4 4.0 23:08:16 17° NE 23:10:44 40° E 23:14:07 10° S
CZ-2C R/B 3.7 23:08:43 10° SE 23:13:07 30° ENE 23:17:22 10° N
SMAP 3.9 23:08:38 10° S 23:13:11 55° W 23:17:46 10° NNW
Cosmos 1818 4.3 23:08:17 10° NW 23:13:39 58° WSW 23:18:58 10° SSE
Cosmos 1943 Rocket 2.9 23:11:54 10° N 23:16:44 30° NE 23:19:12 21° E
USA 215 3.3 23:12:52 15° NE 23:18:31 85° NW 23:25:04 10° SW
Cosmos 2341 Rocket 4.0 23:12:27 10° N 23:18:46 87° E 23:25:06 10° S
Cosmos 1125 Rocket 4.3 23:15:08 10° NNW 23:20:12 54° WSW 23:25:15 10° S
Cosmos 2297 3.8 23:15:24 10° NNW 23:20:59 53° ENE 23:26:33 10° SE
Cosmos 1782 3.2 23:20:52 10° SSE 23:24:31 38° E 23:25:18 34° ENE
SL-16 R/B 2.1 23:20:43 10° SSW 23:26:23 81° ESE 23:31:22 14° NNE
Meteor 1-4 Rocket 3.0 23:22:59 10° SSE 23:26:24 38° E 23:26:26 38° E
SAR-Lupe-1 4.0 23:25:48 23° NNE 23:27:52 66° ESE 23:31:26 10° S
YAOGAN 1 3.5 23:30:24 29° NE 23:30:24 29° NE 23:33:17 10° N
BREEZE-M DEB (TANK) 4.1 23:18:34 10° SW 23:29:39 49° SSE 23:31:28 31° E
ERS-2 2.6 23:27:30 10° N 23:31:08 59° WNW 23:34:43 10° SSW
Cosmos 1689 Rocket 2.3 23:32:44 51° SE 23:32:44 51° SE 23:35:12 10° S
Cosmos 2285 Rocket 4.0 23:26:39 10° NNW 23:33:00 63° ENE 23:39:17 10° SSE
PSLV R/B 3.8 23:32:06 28° NNE 23:34:04 59° E 23:38:02 10° S
SL-24 R/B 3.6 23:32:18 19° NNE 23:35:07 74° E 23:38:48 10° S
Helios 1A Rocket 3.2 23:36:27 42° NE 23:36:27 42° NE 23:39:56 10° N
BREEZE-M DEB (TANK) 3.3 23:34:23 10° W 23:36:12 25° NW 23:36:12 25° NW
Cosmos 1470 Rocket 3.6 23:33:33 10° N 23:37:46 50° E 23:41:57 10° SSE
Cosmos 864 Rocket 4.4 23:31:31 10° N 23:37:50 73° E 23:44:05 10° SSE
SL-8 Rocket 4.0 23:32:07 10° N 23:38:22 87° W 23:44:39 10° S
Meteor 1-26 Rocket 4.3 23:34:32 10° S 23:40:31 77° E 23:46:33 10° NNE
IRS-1C Rocket 4.0 23:36:26 10° SSE 23:41:43 85° ENE 23:47:02 10° NNW
Cosmos 1515 Rocket 3.6 23:38:54 10° S 23:43:08 54° E 23:43:50 48° ENE
BREEZE-M DEB (TANK) 4.3 23:42:10 10° NW 23:42:50 14° NNW 23:42:50 14° NNW
COSMO-SKYMED 1 2.7 23:39:35 10° N 23:43:56 73° WNW 23:48:14 10° SSW
CZ-2D R/B 3.1 23:40:21 10° SSE 23:44:08 83° ENE 23:47:58 10° N
Lacrosse 5 rocket 1.1 23:41:19 10° SW 23:44:58 67° NW 23:45:31 56° N
Cosmos 2181 Rocket 4.3 23:39:00 10° SSW 23:45:25 74° W 23:51:50 10° N
Cosmos 1959 Rocket 4.5 23:40:27 10° N 23:46:51 89° ENE 23:53:13 10° S
Cosmos 1602 4.2 23:43:18 10° N 23:49:55 19° SSE 23:51:04 10° SSE
Okean-O 2.5 23:44:21 10° SSE 23:48:43 64° ENE 23:53:07 10° N
USA 267 3.4 23:47:07 34° E 23:49:50 55° NE 23:56:10 10° NW
Cosmos 1821 Rocket 4.3 23:46:34 10° N 23:52:27 42° ENE 23:53:05 40° E
MOS 1 Rocket 3.6 23:51:15 24° NNE 23:54:33 65° E 23:59:55 10° S
